GW1431 Weather Reports


time (UTC)temp
F
wind
direction
speed
knots
gust
knots
rain 1hr
in
rain 24hr
in
rain mn
in
humidity
%
barometer
mb
20260505153123 77 46 1.7 7.0 0.00 0.00 0.00 46 1011.2
20260505152115 77 169 1.7 4.3 0.00 0.00 0.00 44 1011.2
20260505151616 78 299 1.7 3.5 0.00 0.00 0.00 44 1011.3
20260505151116 77 161 1.7 3.5 0.00 0.00 0.00 44 1011.3
20260505150113 76 210 1.7 5.2 0.00 0.00 0.00 46 1011.2
20260505140610 72 80 1.7 4.3 0.00 0.00 0.00 52 1011.5
20260505125039 64 147 0.9 1.7 0.00 0.00 0.00 65 1012.1
20260505124537 63 130 0.9 2.6 0.00 0.00 0.00 67 1012.1
20260505124033 62 167 0.9 2.6 0.00 0.00 0.00 67 1012.1
20260505123034 61 167 0.9 2.6 0.00 0.00 0.00 68 1012.2
20260505122535 61 167 0.9 2.6 0.00 0.00 0.00 67 1012.2
20260505122034 60 180 0.9 2.6 0.00 0.00 0.00 68 1012.2
20260505121529 60 147 0.9 3.5 0.00 0.00 0.00 70 1012.2
20260505121029 60 97 1.7 3.5 0.00 0.00 0.00 68 1012.1
20260505120528 60 168 1.7 3.5 0.00 0.00 0.00 69 1012.1
20260505120030 59 186 0.9 3.5 0.00 0.00 0.00 69 1012.0
20260505115529 59 178 0.9 3.5 0.00 0.00 0.00 70 1011.9
20260505115029 58 173 1.7 4.3 0.00 0.00 0.00 71 1011.8
20260505114528 58 136 1.7 4.3 0.00 0.00 0.00 70 1011.8
20260505114030 58 173 1.7 3.5 0.00 0.00 0.00 71 1011.8
20260505113532 58 173 1.7 4.3 0.00 0.00 0.00 71 1011.8
20260505113026 58 184 1.7 4.3 0.00 0.00 0.00 71 1011.7
20260505112526 58 173 1.7 4.3 0.00 0.00 0.00 71 1011.7
20260505112025 58 175 0.9 3.5 0.00 0.00 0.00 72 1011.6
20260505111525 58 182 0.9 3.5 0.00 0.00 0.00 72 1011.5
20260505111026 58 178 0.9 3.5 0.00 0.00 0.00 71 1011.4
20260505101949 56 144 0.0 1.7 0.00 0.00 0.00 72 1010.8
20260505100937 57 191 0.9 2.6 0.00 0.00 0.00 72 1010.9
20260505100431 57 191 0.9 2.6 0.00 0.00 0.00 72 1010.8
20260505095420 57 191 0.0 0.9 0.00 0.00 0.00 72 1010.8
20260505094406 57 191 0.0 1.7 0.00 0.00 0.00 71 1010.7
20260505093902 57 191 0.0 1.7 0.00 0.00 0.00 71 1010.7
20260505093355 57 191 0.0 1.7 0.00 0.00 0.00 71 1010.8
20260505092849 58 191 0.0 1.7 0.00 0.00 0.00 71 1010.6
20260505092348 58 191 0.9 2.6 0.00 0.00 0.00 70 1010.7
20260505091838 58 191 0.9 2.6 0.00 0.00 0.00 70 1010.5
20260505091331 58 191 0.9 1.7 0.00 0.00 0.00 70 1010.5
20260505090825 58 191 0.9 3.5 0.00 0.00 0.00 70 1010.5
20260505090318 58 191 0.9 3.5 0.00 0.00 0.00 70 1010.5
20260505085813 58 191 0.9 3.5 0.00 0.00 0.00 70 1010.5
20260505084801 58 191 0.9 2.6 0.00 0.00 0.00 70 1010.5
20260505083243 58 191 0.9 3.5 0.00 0.00 0.00 69 1010.5
20260505082736 59 191 0.9 3.5 0.00 0.00 0.00 69 1010.5
20260505082231 59 191 1.7 3.5 0.00 0.00 0.00 69 1010.5
20260505081219 59 191 0.9 2.6 0.00 0.00 0.00 69 1010.5
20260505080712 59 191 0.9 2.6 0.00 0.00 0.00 68 1010.5
20260505080208 59 191 0.9 2.6 0.00 0.00 0.00 68 1010.4
20260505075702 59 191 0.9 2.6 0.00 0.00 0.00 68 1010.3
20260505075155 59 191 0.9 2.6 0.00 0.00 0.00 68 1010.3
20260505074649 60 191 0.0 1.7 0.00 0.00 0.00 68 1010.2
20260505073638 60 191 0.9 2.6 0.00 0.00 0.00 67 1010.2
20260505072634 60 191 0.9 2.6 0.00 0.00 0.00 67 1010.2
20260505072132 60 191 0.9 1.7 0.00 0.00 0.00 67 1010.2
20260505071633 60 191 0.9 1.7 0.00 0.00 0.00 67 1010.2
20260505071133 60 191 0.9 1.7 0.00 0.00 0.00 67 1010.2
20260505070632 60 191 0.9 1.7 0.00 0.00 0.00 66 1010.2
20260505070133 60 191 0.9 1.7 0.00 0.00 0.00 66 1010.3
20260505065131 60 191 0.9 1.7 0.00 0.00 0.00 66 1010.3
20260505064629 60 191 0.9 1.7 0.00 0.00 0.00 66 1010.3
20260505064132 61 191 0.0 1.7 0.00 0.00 0.00 66 1010.3
20260505063632 61 191 0.9 1.7 0.00 0.00 0.00 65 1010.3
20260505063129 61 191 0.9 1.7 0.00 0.00 0.00 65 1010.3
20260505062628 61 191 0.0 1.7 0.00 0.00 0.00 65 1010.4
20260505062125 61 191 0.9 3.5 0.00 0.00 0.00 64 1010.4
20260505061622 62 191 0.9 3.5 0.00 0.00 0.00 64 1010.3
20260505061122 62 183 0.9 2.6 0.00 0.00 0.00 63 1010.4
20260505060622 62 177 0.9 1.7 0.00 0.00 0.00 63 1010.4
20260505060125 62 177 0.9 2.6 0.00 0.00 0.00 63 1010.4
20260505055618 62 177 0.9 2.6 0.00 0.00 0.00 63 1010.4
20260505055112 62 173 1.7 2.6 0.00 0.00 0.00 62 1010.4
20260505054606 62 177 1.7 4.3 0.00 0.00 0.00 62 1010.5
20260505054059 62 185 1.7 4.3 0.00 0.00 0.00 62 1010.5
20260505053554 62 177 0.9 4.3 0.00 0.00 0.00 62 1010.5
20260505053049 62 180 0.9 3.5 0.00 0.00 0.00 62 1010.5
20260505052541 62 200 0.9 3.5 0.00 0.00 0.00 62 1010.5
20260505052041 62 200 1.7 3.5 0.00 0.00 0.00 62 1010.5
20260505051540 62 190 0.9 4.3 0.00 0.00 0.00 62 1010.5
20260505051042 62 179 0.9 4.3 0.00 0.00 0.00 62 1010.5
20260505050540 62 173 0.9 2.6 0.00 0.00 0.00 62 1010.5
20260505041527 62 188 0.9 3.5 0.00 0.00 0.00 59 1010.2
20260505040527 62 179 0.9 2.6 0.00 0.00 0.00 59 1010.2
20260505040027 62 188 0.9 2.6 0.00 0.00 0.00 59 1010.2
20260505035015 62 186 0.9 2.6 0.00 0.00 0.00 58 1010.1
20260505034509 62 188 0.9 2.6 0.00 0.00 0.00 58 1010.1
20260505034004 62 185 1.7 4.3 0.00 0.00 0.00 57 1010.1
20260505033456 62 192 1.7 4.3 0.00 0.00 0.00 57 1010.1
20260505032951 62 175 0.9 2.6 0.00 0.00 0.00 57 1010.1
20260505032445 62 175 1.7 2.6 0.00 0.00 0.00 56 1010.1
20260505031940 63 178 1.7 3.5 0.00 0.00 0.00 56 1010.1
20260505031433 63 188 1.7 3.5 0.00 0.00 0.00 56 1010.1
20260505030927 63 184 1.7 2.6 0.00 0.00 0.00 56 1010.1
20260505025914 63 184 1.7 3.5 0.00 0.00 0.00 56 1010.1
20260505025410 62 182 0.9 3.5 0.00 0.00 0.00 56 1010.2
20260505024903 62 180 0.9 3.5 0.00 0.00 0.00 57 1010.3
20260505024357 62 175 0.9 1.7 0.00 0.00 0.00 57 1010.3
20260505023345 62 175 0.0 1.7 0.00 0.00 0.00 58 1010.3
20260505022838 61 175 0.0 1.7 0.00 0.00 0.00 59 1010.3
20260505022333 62 175 0.9 1.7 0.00 0.00 0.00 57 1010.2
20260505021827 62 175 0.9 1.7 0.00 0.00 0.00 57 1010.2
20260505021327 62 175 0.9 2.6 0.00 0.00 0.00 56 1010.3
20260505020309 63 175 0.9 2.6 0.00 0.00 0.00 55 1010.2
20260505015804 63 175 0.9 2.6 0.00 0.00 0.00 55 1010.2
20260505015258 63 175 0.9 1.7 0.00 0.00 0.00 54 1010.3
20260505014752 63 175 0.9 1.7 0.00 0.00 0.00 54 1010.3
20260505014252 63 175 0.9 1.7 0.00 0.00 0.00 54 1010.2
20260505013752 63 175 0.9 1.7 0.00 0.00 0.00 54 1010.2
20260505013253 64 175 0.9 2.6 0.00 0.00 0.00 54 1010.2
20260505012753 64 175 0.9 2.6 0.00 0.00 0.00 53 1010.1
20260505012251 64 175 0.9 1.7 0.00 0.00 0.00 53 1010.0
20260505011750 64 175 0.0 1.7 0.00 0.00 0.00 52 1009.9
20260505011251 65 175 0.0 1.7 0.00 0.00 0.00 51 1009.9
20260505010748 65 175 0.9 2.6 0.00 0.00 0.00 50 1009.8
20260505010247 66 175 0.9 2.6 0.00 0.00 0.00 49 1009.7
20260505005747 67 175 1.7 3.5 0.00 0.00 0.00 48 1009.6
20260505005247 67 175 1.7 4.3 0.00 0.00 0.00 47 1009.6
20260505004744 67 173 1.7 4.3 0.00 0.00 0.00 46 1009.6
20260505004245 67 165 2.6 5.2 0.00 0.00 0.00 46 1009.6
20260505003745 67 179 2.6 5.2 0.00 0.00 0.00 46 1009.6
20260505003244 67 173 2.6 5.2 0.00 0.00 0.00 45 1009.6
20260505002743 67 180 2.6 5.2 0.00 0.00 0.00 45 1009.6
20260505002243 67 200 2.6 4.3 0.00 0.00 0.00 45 1009.6
20260505001736 67 165 2.6 5.2 0.00 0.00 0.00 45 1009.6
20260505000725 68 184 2.6 5.2 0.00 0.00 0.00 45 1009.5
20260505000219 68 191 2.6 5.2 0.00 0.00 0.00 45 1009.4
20260504235713 68 173 2.6 6.1 0.00 0.00 0.00 44 1009.4
20260504235208 68 192 2.6 6.1 0.00 0.00 0.00 43 1009.4
20260504234708 69 184 3.5 6.1 0.00 0.00 0.00 43 1009.3
20260504234209 69 179 3.5 6.1 0.00 0.00 0.00 43 1009.3
20260504232707 70 178 2.6 6.1 0.00 0.00 0.00 41 1009.3
20260504231708 70 155 2.6 7.0 0.00 0.00 0.00 41 1009.3
20260504231209 71 178 2.6 7.0 0.00 0.00 0.00 41 1009.4
20260504230707 71 184 2.6 6.1 0.00 0.00 0.00 41 1009.4
20260504230209 71 182 2.6 7.0 0.00 0.00 0.00 40 1009.4
20260504225205 71 182 3.5 7.8 0.00 0.00 0.00 40 1009.4
20260504224204 71 201 4.3 8.7 0.00 0.00 0.00 39 1009.4
20260504223704 71 178 4.3 8.7 0.00 0.00 0.00 39 1009.4
20260504223203 71 200 3.5 8.7 0.00 0.00 0.00 39 1009.5
20260504222703 71 180 3.5 6.1 0.00 0.00 0.00 39 1009.4
20260504222205 71 169 3.5 7.8 0.00 0.00 0.00 40 1009.3
20260504221705 71 167 3.5 7.8 0.00 0.00 0.00 40 1009.4
20260504221200 71 197 3.5 7.8 0.00 0.00 0.00 41 1009.4
20260504220701 71 178 3.5 7.8 0.00 0.00 0.00 39 1009.4
20260504220159 71 184 3.5 7.8 0.00 0.00 0.00 39 1009.4
20260504215659 71 173 3.5 7.0 0.00 0.00 0.00 39 1009.4
20260504215201 71 191 3.5 7.0 0.00 0.00 0.00 41 1009.4
20260504214700 71 184 3.5 7.0 0.00 0.00 0.00 39 1009.3
20260504214159 71 196 2.6 5.2 0.00 0.00 0.00 41 1009.3
20260504213158 71 166 2.6 6.1 0.00 0.00 0.00 42 1009.4
20260504212652 71 188 3.5 7.8 0.00 0.00 0.00 40 1009.4
20260504212146 71 171 3.5 7.8 0.00 0.00 0.00 39 1009.5
20260504211640 71 153 4.3 9.6 0.00 0.00 0.00 39 1009.4
20260504211134 71 201 4.3 9.6 0.00 0.00 0.00 40 1009.4
20260504210628 71 159 2.6 9.6 0.00 0.00 0.00 41 1009.4
20260504210122 71 173 2.6 6.1 0.00 0.00 0.00 40 1009.4
20260504205617 71 207 2.6 6.1 0.00 0.00 0.00 40 1009.4
20260504205115 71 177 2.6 7.8 0.00 0.00 0.00 41 1009.4
20260504204613 71 169 3.5 9.6 0.00 0.00 0.00 41 1009.4
20260504204113 71 171 3.5 9.6 0.00 0.00 0.00 40 1009.5
20260504203614 71 177 3.5 8.7 0.00 0.00 0.00 40 1009.5
20260504203112 71 164 3.5 8.7 0.00 0.00 0.00 41 1009.5
20260504202609 71 165 3.5 7.8 0.00 0.00 0.00 41 1009.6
20260504202110 71 178 2.6 7.8 0.00 0.00 0.00 40 1009.8
20260504201611 71 163 1.7 5.2 0.00 0.00 0.00 41 1009.8
20260504201110 71 120 2.6 5.2 0.00 0.00 0.00 42 1009.8
20260504195609 71 172 2.6 5.2 0.00 0.00 0.00 40 1010.1
20260504195108 71 173 3.5 7.8 0.00 0.00 0.00 40 1010.1
20260504194605 70 177 3.5 8.7 0.00 0.00 0.00 41 1010.2
20260504194105 70 165 3.5 8.7 0.00 0.00 0.00 40 1010.3
20260504193606 70 185 3.5 7.0 0.00 0.00 0.00 39 1010.4
20260504193106 70 171 3.5 7.0 0.00 0.00 0.00 41 1010.6
20260504192600 70 168 3.5 7.0 0.00 0.00 0.00 42 1010.5
20260504192054 70 180 4.3 7.8 0.00 0.00 0.00 43 1010.7
20260504191548 70 205 3.5 7.8 0.00 0.00 0.00 39 1010.8
20260504191042 70 166 2.6 8.7 0.00 0.00 0.00 39 1010.8
20260504190536 70 140 3.5 8.7 0.00 0.00 0.00 41 1010.9
20260504190031 70 188 2.6 8.7 0.00 0.00 0.00 40 1011.0
20260504185524 71 185 1.7 5.2 0.00 0.00 0.00 41 1011.1
20260504185019 70 158 3.5 7.0 0.00 0.00 0.00 43 1011.2
20260504184512 69 184 4.3 9.6 0.00 0.00 0.00 40 1011.2
20260504184006 69 184 4.3 9.6 0.00 0.00 0.00 40 1011.4
20260504183500 69 201 3.5 8.7 0.00 0.00 0.00 44 1011.4
20260504182954 69 179 4.3 8.7 0.00 0.00 0.00 41 1011.4
20260504181942 69 183 2.6 7.0 0.00 0.00 0.00 39 1011.6
20260504181436 69 168 3.5 7.0 0.00 0.00 0.00 41 1011.7
20260504180930 69 174 2.6 6.1 0.00 0.00 0.00 42 1011.6
20260504180424 69 197 3.5 7.0 0.00 0.00 0.00 42 1011.7
20260504175919 68 180 3.5 10.4 0.00 0.00 0.00 41 1011.7
20260504175412 68 166 3.5 10.4 0.00 0.00 0.00 44 1011.6
20260504174400 70 194 1.7 4.3 0.00 0.00 0.00 42 1011.8
20260504173855 70 186 1.7 6.1 0.00 0.00 0.00 39 1011.8
20260504173356 69 216 2.6 6.1 0.00 0.00 0.00 41 1011.8
20260504172855 70 147 1.7 6.1 0.00 0.00 0.00 41 1011.9
20260504172355 70 73 1.7 5.2 0.00 0.00 0.00 40 1011.9
20260504171854 69 331 1.7 5.2 0.00 0.00 0.00 41 1012.1
20260504171357 68 180 1.7 5.2 0.00 0.00 0.00 41 1012.1
20260504170857 67 196 2.6 6.1 0.00 0.00 0.00 42 1012.2
20260504170354 67 146 2.6 6.1 0.00 0.00 0.00 40 1012.3
20260504160338 67 218 1.7 4.3 0.00 0.00 0.00 45 1013.0